| time (UTC) | temp F | wind direction | speed knots | gust knots | rain 1hr in | rain 24hr in | rain mn in | humidity % | barometer mb |
| 20260507000019 | 59 | 207 | 0.0 | 5.2 | 0.00 | 0.20 | 0.20 | 95 | 1004.7 |
| 20260506234528 | 59 | 150 | 0.0 | 0.9 | 0.00 | 0.20 | 0.20 | 95 | 1004.5 |
| 20260506233019 | 59 | 208 | 0.0 | 1.7 | 0.00 | 0.20 | 0.20 | 95 | 1004.3 |
| 20260506231518 | 59 | 155 | 0.0 | 0.9 | 0.00 | 0.20 | 0.20 | 95 | 1004.5 |
| 20260506230021 | 60 | 155 | 0.0 | 0.9 | 0.00 | 0.20 | 0.20 | 95 | 1004.3 |
| 20260506224518 | 60 | 77 | 0.0 | 1.7 | 0.02 | 0.20 | 0.20 | 95 | 1004.3 |
| 20260506223016 | 60 | 86 | 0.0 | 0.0 | 0.06 | 0.20 | 0.20 | 95 | 1004.3 |
| 20260506221515 | 60 | 81 | 0.0 | 0.0 | 0.06 | 0.20 | 0.20 | 95 | 1004.4 |
| 20260506220022 | 60 | 80 | 0.0 | 0.9 | 0.06 | 0.20 | 0.20 | 95 | 1004.4 |
| 20260506214513 | 59 | 174 | 0.0 | 0.9 | 0.04 | 0.18 | 0.18 | 94 | 1004.4 |
| 20260506213011 | 59 | 93 | 0.0 | 0.9 | 0.00 | 0.14 | 0.14 | 94 | 1004.5 |
| 20260506211519 | 59 | 165 | 0.0 | 0.9 | 0.02 | 0.14 | 0.14 | 94 | 1004.5 |
| 20260506210021 | 60 | 138 | 0.0 | 0.9 | 0.03 | 0.14 | 0.14 | 94 | 1004.6 |
| 20260506204509 | 60 | 77 | 0.0 | 1.7 | 0.03 | 0.14 | 0.14 | 94 | 1004.6 |
| 20260506203008 | 60 | 96 | 0.0 | 0.9 | 0.04 | 0.14 | 0.14 | 94 | 1004.6 |
| 20260506201507 | 60 | 96 | 0.0 | 0.9 | 0.02 | 0.12 | 0.12 | 94 | 1004.9 |
| 20260506200009 | 60 | 86 | 0.0 | 0.9 | 0.02 | 0.11 | 0.11 | 94 | 1004.9 |
| 20260506194503 | 60 | 229 | 0.0 | 2.6 | 0.04 | 0.11 | 0.11 | 94 | 1005.3 |
| 20260506193001 | 60 | 177 | 0.0 | 1.7 | 0.03 | 0.10 | 0.10 | 93 | 1005.4 |
| 20260506191600 | 60 | 130 | 0.0 | 2.6 | 0.04 | 0.10 | 0.10 | 93 | 1005.4 |
| 20260506190100 | 60 | 86 | 0.0 | 2.6 | 0.03 | 0.09 | 0.09 | 92 | 1005.5 |
| 20260506184617 | 61 | 84 | 0.0 | 1.7 | 0.02 | 0.07 | 0.07 | 92 | 1005.7 |
| 20260506183059 | 61 | 141 | 0.0 | 0.9 | 0.04 | 0.07 | 0.07 | 91 | 1005.6 |
| 20260506181558 | 62 | 193 | 0.0 | 1.7 | 0.05 | 0.06 | 0.06 | 90 | 1005.8 |
| 20260506180057 | 62 | 158 | 0.0 | 0.9 | 0.06 | 0.06 | 0.06 | 90 | 1005.5 |
| 20260506174554 | 63 | 158 | 0.0 | 4.3 | 0.05 | 0.05 | 0.05 | 89 | 1005.6 |
| 20260506173104 | 64 | 173 | 0.0 | 0.9 | 0.03 | 0.03 | 0.03 | 87 | 1006.1 |
| 20260506171553 | 65 | 179 | 0.0 | 0.9 | 0.01 | 0.01 | 0.01 | 82 | 1006.5 |
| 20260506170058 | 66 | 167 | 0.0 | 2.6 | 0.00 | 0.00 | 0.00 | 79 | 1006.4 |
| 20260506164608 | 67 | 82 | 0.0 | 0.0 | 0.00 | 0.00 | 0.00 | 79 | 1006.4 |
| 20260506163050 | 67 | 82 | 0.0 | 0.0 | 0.00 | 0.00 | 0.00 | 77 | 1006.4 |
| 20260506161546 | 67 | 179 | 0.0 | 2.6 | 0.00 | 0.00 | 0.00 | 77 | 1006.6 |
| 20260506160049 | 66 | 73 | 0.0 | 0.9 | 0.00 | 0.00 | 0.00 | 77 | 1006.9 |
| 20260506154549 | 65 | 167 | 0.0 | 0.9 | 0.00 | 0.00 | 0.00 | 78 | 1007.2 |
| 20260506153038 | 65 | 203 | 0.0 | 1.7 | 0.00 | 0.00 | 0.00 | 78 | 1007.4 |
| 20260506151536 | 65 | 200 | 0.0 | 2.6 | 0.00 | 0.00 | 0.00 | 78 | 1007.7 |
| 20260506150036 | 65 | 205 | 0.0 | 2.6 | 0.00 | 0.00 | 0.00 | 79 | 1007.8 |
| 20260506144533 | 64 | 211 | 0.0 | 0.9 | 0.00 | 0.00 | 0.00 | 79 | 1007.8 |
| 20260506143036 | 64 | 92 | 0.0 | 2.6 | 0.00 | 0.00 | 0.00 | 79 | 1007.9 |
| 20260506141537 | 64 | 160 | 0.0 | 1.7 | 0.00 | 0.00 | 0.00 | 79 | 1007.7 |
| 20260506140031 | 64 | 210 | 0.0 | 1.7 | 0.00 | 0.00 | 0.00 | 79 | 1008.0 |
| 20260506134529 | 64 | 146 | 0.0 | 0.9 | 0.00 | 0.00 | 0.00 | 80 | 1007.5 |
| 20260506133027 | 63 | 44 | 0.0 | 0.9 | 0.00 | 0.00 | 0.00 | 81 | 1007.7 |
| 20260506131532 | 63 | 119 | 0.0 | 0.9 | 0.00 | 0.00 | 0.00 | 82 | 1007.7 |
| 20260506130023 | 62 | 155 | 0.0 | 1.7 | 0.00 | 0.00 | 0.00 | 82 | 1008.0 |
| 20260506124526 | 61 | 176 | 0.0 | 1.7 | 0.00 | 0.00 | 0.00 | 83 | 1008.1 |
| 20260506123024 | 61 | 169 | 0.0 | 0.9 | 0.00 | 0.00 | 0.00 | 83 | 1008.2 |
| 20260506121521 | 60 | 134 | 0.0 | 0.9 | 0.00 | 0.00 | 0.00 | 84 | 1008.4 |
| 20260506120034 | 60 | 152 | 0.0 | 0.9 | 0.00 | 0.00 | 0.00 | 84 | 1008.4 |
| 20260506114524 | 60 | 165 | 0.0 | 0.9 | 0.00 | 0.00 | 0.00 | 85 | 1008.3 |
| 20260506113019 | 59 | 83 | 0.0 | 0.0 | 0.00 | 0.00 | 0.00 | 85 | 1008.4 |
| 20260506111518 | 59 | 87 | 0.0 | 0.9 | 0.00 | 0.00 | 0.00 | 86 | 1008.1 |
| 20260506110019 | 58 | 135 | 0.0 | 0.9 | 0.00 | 0.00 | 0.00 | 87 | 1008.5 |
| 20260506104516 | 58 | 107 | 0.0 | 0.0 | 0.00 | 0.00 | 0.00 | 87 | 1008.6 |
| 20260506103025 | 58 | 103 | 0.0 | 1.7 | 0.00 | 0.00 | 0.00 | 87 | 1008.5 |
| 20260506101515 | 58 | 94 | 0.0 | 0.0 | 0.00 | 0.00 | 0.00 | 87 | 1008.0 |
| 20260506100013 | 58 | 160 | 0.0 | 0.9 | 0.00 | 0.00 | 0.00 | 87 | 1008.2 |
| 20260506094526 | 58 | 146 | 0.0 | 0.9 | 0.00 | 0.00 | 0.00 | 86 | 1007.9 |
| 20260506093016 | 58 | 205 | 0.0 | 0.9 | 0.00 | 0.00 | 0.00 | 85 | 1008.2 |
| 20260506091510 | 58 | 188 | 0.0 | 0.9 | 0.00 | 0.00 | 0.00 | 85 | 1008.0 |
| 20260506090009 | 58 | 208 | 0.0 | 1.7 | 0.00 | 0.00 | 0.00 | 84 | 1008.1 |
| 20260506084509 | 59 | 131 | 0.0 | 0.9 | 0.00 | 0.00 | 0.00 | 84 | 1008.1 |
| 20260506083009 | 59 | 169 | 0.0 | 0.9 | 0.00 | 0.00 | 0.00 | 84 | 1008.3 |
| 20260506081508 | 59 | 186 | 0.0 | 0.9 | 0.00 | 0.00 | 0.00 | 84 | 1008.1 |
| 20260506073006 | 57 | 73 | 0.0 | 0.0 | 0.00 | 0.00 | 0.00 | 84 | 1008.1 |
| 20260506071506 | 58 | 74 | 0.0 | 0.0 | 0.00 | 0.00 | 0.00 | 83 | 1008.1 |
| 20260506061556 | 60 | 73 | 0.0 | 0.0 | 0.00 | 0.00 | 0.00 | 78 | 1007.9 |
| 20260506044553 | 62 | 73 | 0.0 | 0.0 | 0.00 | 0.00 | 0.00 | 74 | 1008.3 |
| 20260506043039 | 62 | 74 | 0.0 | 0.0 | 0.00 | 0.00 | 0.00 | 73 | 1008.3 |
| 20260506041548 | 62 | 84 | 0.0 | 0.9 | 0.00 | 0.00 | 0.00 | 72 | 1008.2 |
| 20260506040041 | 63 | 172 | 0.0 | 0.9 | 0.00 | 0.00 | 0.00 | 71 | 1008.3 |
| 20260506034535 | 63 | 116 | 0.0 | 0.0 | 0.00 | 0.00 | 0.00 | 71 | 1008.3 |
| 20260506033034 | 63 | 119 | 0.0 | 0.9 | 0.00 | 0.00 | 0.00 | 70 | 1008.3 |
| 20260506031546 | 63 | 169 | 0.0 | 1.7 | 0.00 | 0.00 | 0.00 | 68 | 1008.2 |
| 20260506030038 | 64 | 201 | 0.0 | 0.9 | 0.00 | 0.00 | 0.00 | 68 | 1008.2 |
| 20260506024536 | 64 | 186 | 0.0 | 1.7 | 0.00 | 0.00 | 0.00 | 67 | 1008.2 |
| 20260506023036 | 65 | 65 | 0.0 | 1.7 | 0.00 | 0.00 | 0.00 | 66 | 1008.2 |
| 20260506021532 | 65 | 86 | 0.0 | 0.9 | 0.00 | 0.00 | 0.00 | 66 | 1008.1 |
| 20260506020030 | 66 | 78 | 0.0 | 1.7 | 0.00 | 0.00 | 0.00 | 66 | 1008.0 |
| 20260506014530 | 66 | 195 | 0.0 | 0.9 | 0.00 | 0.00 | 0.00 | 65 | 1008.0 |
| 20260506013028 | 67 | 130 | 0.0 | 0.9 | 0.00 | 0.00 | 0.00 | 64 | 1007.8 |
| 20260506011528 | 68 | 158 | 0.0 | 2.6 | 0.00 | 0.00 | 0.00 | 62 | 1007.7 |
| 20260506010026 | 68 | 120 | 0.0 | 1.7 | 0.00 | 0.00 | 0.00 | 61 | 1007.5 |
| 20260506004529 | 69 | 139 | 0.0 | 0.9 | 0.00 | 0.00 | 0.00 | 60 | 1007.5 |
| 20260506003024 | 70 | 164 | 0.0 | 0.9 | 0.00 | 0.00 | 0.00 | 60 | 1007.0 |
| 20260506001524 | 70 | 145 | 0.0 | 0.9 | 0.00 | 0.00 | 0.00 | 59 | 1006.8 |